Radiation Dose measured at exhaust stack monitor of Fukushima Daiichi Nuclear Power Station
Date,Time,Unit 5 6 shared exhaust cylinders,Wind Direction,Wind Velocity(m/s)
2021/12/06,00:00,3.8,west,1.4
2021/12/06,00:10,4.0,west,1.5
2021/12/06,00:20,4.0,west,2.0
2021/12/06,00:30,3.9,west,1.7
2021/12/06,00:40,3.9,west-northwest,1.4
2021/12/06,00:50,4.0,west-northwest,1.7
2021/12/06,01:00,3.9,west,1.4
2021/12/06,01:10,3.9,west-southwest,1.2
2021/12/06,01:20,3.8,west,1.2
2021/12/06,01:30,3.8,west,1.5
2021/12/06,01:40,3.9,west,1.7
2021/12/06,01:50,3.8,west,1.4
2021/12/06,02:00,3.9,west-southwest,1.4
2021/12/06,02:10,3.8,west-southwest,1.4
2021/12/06,02:20,3.9,west-southwest,1.5
2021/12/06,02:30,4.0,west-southwest,1.7
2021/12/06,02:40,3.9,west-southwest,2.0
2021/12/06,02:50,3.8,southwest,1.9
2021/12/06,03:00,3.8,southwest,1.4
2021/12/06,03:10,4.1,southwest,0.9
2021/12/06,03:20,3.9,southwest,1.1
2021/12/06,03:30,4.0,west-southwest,1.2
2021/12/06,03:40,4.0,west-southwest,1.5
2021/12/06,03:50,3.9,southwest,0.6
2021/12/06,04:00,4.0,west,0.8
2021/12/06,04:10,3.9,west-southwest,0.9
2021/12/06,04:20,4.0,west-southwest,0.6
2021/12/06,04:30,4.0,west,0.8
2021/12/06,04:40,4.0,west-southwest,0.9
2021/12/06,04:50,3.9,west-southwest,1.1
2021/12/06,05:00,4.1,west-southwest,1.1
2021/12/06,05:10,3.7,southwest,1.4
2021/12/06,05:20,4.0,west-southwest,0.9
2021/12/06,05:30,3.7,west,0.9
2021/12/06,05:40,3.9,west,1.2
2021/12/06,05:50,4.0,west-northwest,0.8
2021/12/06,06:00,4.0,northwest,1.2
2021/12/06,06:10,3.9,north-northwest,0.9
2021/12/06,06:20,3.8,north-northeast,0.8
2021/12/06,06:30,4.0,north-northeast,0.9
2021/12/06,06:40,4.2,north-northeast,1.5
2021/12/06,06:50,4.0,north-northeast,1.7
2021/12/06,07:00,3.9,north,1.7
2021/12/06,07:10,4.0,north-northwest,2.6
2021/12/06,07:20,3.8,north-northwest,2.3
2021/12/06,07:30,3.8,northwest,2.0
2021/12/06,07:40,4.0,northwest,1.7
2021/12/06,07:50,4.0,northwest,2.0
2021/12/06,08:00,3.9,north-northwest,0.9
2021/12/06,08:10,4.0,north-northwest,0.6
2021/12/06,08:20,3.9,east,1.1
2021/12/06,08:30,3.9,east-southeast,0.6
2021/12/06,08:40,3.9,-,CALM
2021/12/06,08:50,3.9,-,CALM
2021/12/06,09:00,3.8,northwest,0.6
2021/12/06,09:10,3.8,northwest,1.4
2021/12/06,09:20,3.9,-,CALM
2021/12/06,09:30,3.9,-,CALM
2021/12/06,09:40,4.0,west-southwest,1.1
2021/12/06,09:50,3.9,south-southeast,1.2
2021/12/06,10:00,4.0,south-southeast,1.5
2021/12/06,10:10,3.9,south,1.1
2021/12/06,10:20,4.0,south-southeast,1.2
2021/12/06,10:30,4.0,south-southeast,1.1
2021/12/06,10:40,3.9,east-southeast,1.4
2021/12/06,10:50,4.0,east-southeast,2.3
2021/12/06,11:00,4.0,-,CALM
2021/12/06,11:10,3.9,east-southeast,1.5
2021/12/06,11:20,4.1,southeast,1.4
2021/12/06,11:30,3.9,southeast,1.7
2021/12/06,11:40,4.0,southeast,1.9
2021/12/06,11:50,4.0,east-southeast,2.2
2021/12/06,12:00,3.8,east,2.0
2021/12/06,12:10,3.8,east,1.9
2021/12/06,12:20,3.9,east,2.3
2021/12/06,12:30,4.0,northeast,1.7
2021/12/06,12:40,3.9,east,2.0
2021/12/06,12:50,4.1,east,2.0
2021/12/06,13:00,4.0,east,1.5
2021/12/06,13:10,3.8,east-southeast,1.7
2021/12/06,13:20,4.0,east,1.7
2021/12/06,13:30,3.8,east-southeast,1.4
2021/12/06,13:40,4.1,east,1.9
2021/12/06,13:50,3.9,east-southeast,1.5
2021/12/06,14:00,4.0,east-southeast,0.9
2021/12/06,14:10,4.0,east,1.1
2021/12/06,14:20,3.9,southeast,1.7
2021/12/06,14:30,4.0,east,0.9
2021/12/06,14:40,4.0,northeast,0.9
2021/12/06,14:50,3.9,east,1.1
2021/12/06,15:00,4.1,north-northeast,0.6
2021/12/06,15:10,3.9,-,CALM
2021/12/06,15:20,4.1,west,0.6
2021/12/06,15:30,3.9,-,CALM
2021/12/06,15:40,3.9,west-southwest,0.6
2021/12/06,15:50,4.0,-,CALM
2021/12/06,16:00,3.9,northwest,0.6
2021/12/06,16:10,3.9,-,CALM
2021/12/06,16:20,3.9,-,CALM
2021/12/06,16:30,3.9,-,CALM
2021/12/06,16:40,4.1,-,CALM
2021/12/06,16:50,4.1,-,CALM
2021/12/06,17:00,4.0,-,CALM
2021/12/06,17:10,4.0,northwest,0.6
2021/12/06,17:20,3.9,northwest,0.9
2021/12/06,17:30,4.1,west-northwest,1.4
2021/12/06,17:40,3.9,west-northwest,0.9
2021/12/06,17:50,4.1,northwest,1.7
2021/12/06,18:00,4.0,north-northwest,1.7
2021/12/06,18:10,3.8,northwest,1.4
2021/12/06,18:20,4.0,north-northwest,1.5
2021/12/06,18:30,4.0,north-northwest,1.1
2021/12/06,18:40,4.1,north-northeast,1.2
2021/12/06,18:50,4.0,north-northeast,1.5
2021/12/06,19:00,3.8,north-northeast,1.4
2021/12/06,19:10,4.0,north,1.5
2021/12/06,19:20,3.9,north-northwest,1.2
2021/12/06,19:30,3.9,-,CALM
2021/12/06,19:40,4.0,-,CALM
2021/12/06,19:50,3.8,-,CALM
2021/12/06,20:00,4.1,-,CALM
2021/12/06,20:10,4.1,-,CALM
2021/12/06,20:20,3.9,east,0.8
2021/12/06,20:30,4.0,-,CALM
2021/12/06,20:40,4.0,southeast,0.6
2021/12/06,20:50,4.0,southeast,0.6
2021/12/06,21:00,3.7,southeast,0.8
2021/12/06,21:10,4.1,north-northwest,0.9
2021/12/06,21:20,4.0,north,1.4
2021/12/06,21:30,4.0,north-northwest,0.6
2021/12/06,21:40,4.0,east,0.9
2021/12/06,21:50,4.1,northeast,0.8
2021/12/06,22:00,4.1,north-northeast,0.8
2021/12/06,22:10,4.0,west-northwest,1.7
2021/12/06,22:20,3.9,northwest,2.3
2021/12/06,22:30,4.0,northwest,1.4
2021/12/06,22:40,3.9,north-northwest,0.9
2021/12/06,22:50,4.2,northwest,1.7
2021/12/06,23:00,3.9,northwest,2.3
2021/12/06,23:10,3.8,north-northwest,1.9
2021/12/06,23:20,4.0,north-northwest,2.0
2021/12/06,23:30,4.1,north-northwest,1.9
2021/12/06,23:40,4.1,north-northwest,2.0
2021/12/06,23:50,3.9,north,1.5
